Main page
METAR-TAF:

METAR-TAF

Airports :

Yellowstone Lake, Wyoming, United States

latitude: 44-32-40N, longitude: 110-25-16W, elevation: 7833 ft

Current weather observation

The report was made 1 hour and 1 minutes ago, at 19:56 UTC
Calm wind
Temperature 18°F
Humidity 62%
Pressure 30.21 in. Hg

METAR: KP60 031956Z AUTO 00000KT M08/M14 A3021 RMK AO1 SLP328 T10831144

Time: 13:57 (20:57 UTC)


TAF: missing

Weather observations and forecasts of more than 4000 airports (METAR and TAF reports).

The available stations are represented by yellow and red dots on the map.

Hover mouse over dot to see the name of the station.

Then click to see weather observations and forecasts.

To change the map : click on the green buttons with a black cross to zoom in, on the green button with a dash to zoom out, or on the green arrows for adjacent maps.


METAR-TAF: